Date String (YYYY-MM-DD hh:mm:ss) UTC,Instrument flags,Ambient pressure (hPa),Sample flow (lpm),Bypass flow (lpm),Sample temperature (°C),Ambient temperature (°C),ASC tube jacket temperature (°C),LED temperature (°C),Box temperature (°C),Sample RH (%),Mass concentration (μg/m³),Mass concentration (μg/m³)
DateTimeUTC,F1_M11,P_M11,Q1_M11,Q2_M11,T1_M11,T2_M11,T3_M11,T4_M11,T5_M11,U1_M11,X0_M11,X2_M11
2021-08-11 17:00:00,FlowAlarm;OPCInstrumentWarning,0830.4,5.00,0.00,29.3,27.0,00.0,38.5,31.1,19.9,0039.88,0023.87
2021-08-11 17:01:00,FlowAlarm;OPCInstrumentWarning,0830.4,5.00,0.00,29.3,27.4,00.0,38.5,31.2,19.7,0039.83,0023.96
2021-08-11 17:02:00,FlowAlarm;OPCInstrumentWarning,0830.4,5.01,0.00,29.3,27.8,00.0,38.5,31.3,19.5,0039.92,0024.04
2021-08-11 17:03:00,FlowAlarm;OPCInstrumentWarning,0830.5,5.00,0.00,29.3,28.0,00.0,38.5,31.3,19.2,0039.74,0024.11
2021-08-11 17:04:00,FlowAlarm;OPCInstrumentWarning,0830.4,4.98,0.00,29.4,28.3,00.0,38.5,31.4,19.6,0040.13,0024.23
2021-08-11 17:05:00,FlowAlarm;OPCInstrumentWarning,0830.3,5.01,0.00,29.4,28.5,00.0,38.5,31.5,19.4,0040.02,0024.31
2021-08-11 17:06:00,FlowAlarm;OPCInstrumentWarning,0830.3,5.00,0.00,29.5,28.6,00.0,38.5,31.5,19.7,0040.29,0024.41
2021-08-11 17:07:00,FlowAlarm;OPCInstrumentWarning,0830.3,4.98,0.00,29.5,28.7,00.0,38.6,31.6,20.2,0040.51,0024.46
2021-08-11 17:08:00,FlowAlarm;OPCInstrumentWarning,0830.3,5.00,0.00,29.5,27.8,00.0,38.6,31.4,20.7,0041.41,0024.47
2021-08-11 17:09:00,FlowAlarm;OPCInstrumentWarning,0830.3,5.00,0.00,29.4,26.3,00.0,38.5,31.0,20.2,0042.09,0024.54
2021-08-11 17:10:00,FlowAlarm;OPCInstrumentWarning,0830.3,5.00,0.00,29.3,26.4,00.0,38.5,31.0,19.6,0041.53,0024.61
2021-08-11 17:11:00,FlowAlarm;OPCInstrumentWarning,0830.3,4.99,0.00,29.3,26.8,00.0,38.5,31.1,19.6,0040.67,0024.64
2021-08-11 17:12:00,FlowAlarm;OPCInstrumentWarning,0830.3,5.00,0.00,29.3,27.2,00.0,38.5,31.1,19.4,0040.78,0024.80
2021-08-11 17:13:00,FlowAlarm;OPCInstrumentWarning,0830.3,5.00,0.00,29.3,27.5,00.0,38.5,31.2,19.6,0040.82,0024.93
2021-08-11 17:14:00,FlowAlarm;OPCInstrumentWarning,0830.3,5.00,0.00,29.3,27.9,00.0,38.5,31.3,20.2,0040.49,0025.05
2021-08-11 17:15:00,FlowAlarm;OPCInstrumentWarning,0830.2,4.99,0.00,29.3,28.1,00.0,38.5,31.3,20.1,0040.85,0025.16
2021-08-11 17:16:00,FlowAlarm;OPCInstrumentWarning,0830.2,4.99,0.00,29.4,28.3,00.0,38.5,31.4,20.1,0041.80,0025.33
2021-08-11 17:17:00,FlowAlarm;OPCInstrumentWarning,0830.3,5.01,0.00,29.4,28.5,00.0,38.5,31.5,19.2,0042.48,0025.47
2021-08-11 17:18:00,FlowAlarm;OPCInstrumentWarning,0830.2,5.01,0.00,29.5,28.7,00.0,38.5,31.6,18.9,0042.55,0025.51
2021-08-11 17:19:00,FlowAlarm;OPCInstrumentWarning,0830.2,5.00,0.00,29.5,28.1,00.0,38.5,31.4,19.0,0041.27,0025.56
2021-08-11 17:20:00,FlowAlarm;OPCInstrumentWarning,0830.1,4.99,0.00,29.4,26.4,00.0,38.5,31.0,20.1,0040.61,0025.61
2021-08-11 17:21:00,FlowAlarm;OPCInstrumentWarning,0830.1,5.01,0.00,29.3,26.2,00.0,38.5,30.9,20.4,0041.77,0025.64
2021-08-11 17:22:00,FlowAlarm;OPCInstrumentWarning,0830.1,5.00,0.00,29.3,26.6,00.0,38.5,31.0,19.3,0041.21,0025.65
2021-08-11 17:23:00,FlowAlarm;OPCInstrumentWarning,0830.1,5.01,0.00,29.2,27.0,00.0,38.5,31.1,18.8,0040.78,0025.64
2021-08-11 17:24:00,FlowAlarm;OPCInstrumentWarning,0830.0,4.99,0.00,29.2,27.4,00.0,38.4,31.2,19.1,0040.46,0025.64
2021-08-11 17:25:00,FlowAlarm;OPCInstrumentWarning,0830.1,5.00,0.00,29.3,27.7,00.0,38.4,31.3,19.5,0041.43,0025.64
2021-08-11 17:26:00,FlowAlarm;OPCInstrumentWarning,0830.1,4.99,0.00,29.3,28.0,00.0,38.5,31.3,19.3,0041.72,0025.58
2021-08-11 17:27:00,FlowAlarm;OPCInstrumentWarning,0830.1,5.01,0.00,29.3,28.3,00.0,38.5,31.4,19.9,0040.52,0025.49
2021-08-11 17:28:00,FlowAlarm;OPCInstrumentWarning,0830.1,5.00,0.00,29.4,28.5,00.0,38.5,31.4,19.5,0040.11,0025.43
2021-08-11 17:29:00,FlowAlarm;OPCInstrumentWarning,0830.0,5.00,0.00,29.4,28.6,00.0,38.5,31.5,19.5,0041.03,0025.52
2021-08-11 17:30:00,FlowAlarm;OPCInstrumentWarning,0830.0,5.02,0.00,29.5,28.3,00.0,38.5,31.4,19.5,0042.09,0025.54
2021-08-11 17:31:00,FlowAlarm;OPCInstrumentWarning,0830.1,4.99,0.00,29.4,26.8,00.0,38.5,31.1,19.2,0042.83,0025.55
2021-08-11 17:32:00,FlowAlarm;OPCInstrumentWarning,0830.0,5.00,0.00,29.3,26.3,00.0,38.5,30.9,19.2,0042.97,0025.60
2021-08-11 17:33:00,FlowAlarm;OPCInstrumentWarning,0830.1,5.01,0.00,29.3,26.6,00.0,38.5,31.0,19.8,0044.28,0025.62
2021-08-11 17:34:00,FlowAlarm;OPCInstrumentWarning,0830.1,5.00,0.00,29.2,27.0,00.0,38.4,31.0,20.4,0046.25,0025.63
2021-08-11 17:35:00,FlowAlarm;OPCInstrumentWarning,0830.0,5.01,0.00,29.2,27.4,00.0,38.4,31.1,19.7,0047.83,0025.66
2021-08-11 17:36:00,FlowAlarm;OPCInstrumentWarning,0830.1,5.00,0.00,29.2,27.7,00.0,38.4,31.2,19.6,0046.83,0025.68
2021-08-11 17:37:00,FlowAlarm;OPCInstrumentWarning,0830.1,4.99,0.00,29.3,28.0,00.0,38.4,31.3,20.0,0046.01,0025.75
2021-08-11 17:38:00,FlowAlarm;OPCInstrumentWarning,0830.1,5.01,0.00,29.3,28.2,00.0,38.4,31.3,19.9,0046.44,0025.85
2021-08-11 17:39:00,FlowAlarm;OPCInstrumentWarning,0830.1,4.99,0.00,29.4,28.4,00.0,38.5,31.4,20.4,0046.91,0025.96
2021-08-11 17:40:00,FlowAlarm;OPCInstrumentWarning,0830.1,5.00,0.00,29.4,28.6,00.0,38.5,31.5,20.3,0046.48,0025.94
2021-08-11 17:41:00,FlowAlarm;OPCInstrumentWarning,0830.1,5.00,0.00,29.4,27.8,00.0,38.5,31.3,19.8,0045.82,0025.99
2021-08-11 17:42:00,FlowAlarm;OPCInstrumentWarning,0830.1,5.00,0.00,29.3,26.2,00.0,38.5,30.9,20.0,0045.60,0026.11
2021-08-11 17:43:00,FlowAlarm;OPCInstrumentWarning,0830.0,5.00,0.00,29.2,26.1,00.0,38.4,30.9,19.8,0045.32,0026.13
2021-08-11 17:44:00,FlowAlarm;OPCInstrumentWarning,0830.0,5.00,0.00,29.2,26.5,00.0,38.4,31.0,19.7,0044.61,0026.24
2021-08-11 17:45:00,FlowAlarm;OPCInstrumentWarning,0829.9,4.99,0.00,29.2,27.0,00.0,38.4,31.0,20.2,0043.20,0026.24
2021-08-11 17:46:00,FlowAlarm;OPCInstrumentWarning,0829.9,5.00,0.00,29.2,27.3,00.0,38.4,31.1,20.9,0042.50,0026.27
2021-08-11 17:47:00,FlowAlarm;OPCInstrumentWarning,0829.9,5.00,0.00,29.2,27.7,00.0,38.4,31.2,20.3,0042.95,0026.47
2021-08-11 17:48:00,FlowAlarm;OPCInstrumentWarning,0830.0,5.00,0.00,29.2,28.0,00.0,38.4,31.2,20.6,0044.04,0026.61
2021-08-11 17:49:00,FlowAlarm;OPCInstrumentWarning,0829.8,4.99,0.00,29.3,28.2,00.0,38.4,31.3,20.7,0044.27,0026.61
2021-08-11 17:50:00,FlowAlarm;OPCInstrumentWarning,0829.9,5.01,0.00,29.3,28.4,00.0,38.4,31.4,20.8,0043.85,0026.61
2021-08-11 17:51:00,FlowAlarm;OPCInstrumentWarning,0829.8,5.00,0.00,29.4,28.6,00.0,38.4,31.4,21.0,0043.74,0026.64
2021-08-11 17:52:00,FlowAlarm;OPCInstrumentWarning,0829.9,5.01,0.00,29.5,28.6,00.0,38.5,31.5,20.8,0045.26,0026.78
2021-08-11 17:53:00,FlowAlarm;OPCInstrumentWarning,0829.8,5.00,0.00,29.4,27.4,00.0,38.5,31.2,20.9,0045.99,0026.92
2021-08-11 17:54:00,FlowAlarm;OPCInstrumentWarning,0829.8,5.00,0.00,29.3,26.2,00.0,38.4,30.9,21.3,0045.24,0027.04
2021-08-11 17:55:00,FlowAlarm;OPCInstrumentWarning,0829.8,5.01,0.00,29.2,26.4,00.0,38.4,30.9,20.1,0046.19,0027.13
2021-08-11 17:56:00,FlowAlarm;OPCInstrumentWarning,0829.8,5.00,0.00,29.2,26.8,00.0,38.4,31.0,20.0,0046.53,0027.26
2021-08-11 17:57:00,FlowAlarm;OPCInstrumentWarning,0829.8,4.99,0.00,29.2,27.2,00.0,38.4,31.1,20.3,0046.74,0027.33
2021-08-11 17:58:00,FlowAlarm;OPCInstrumentWarning,0829.7,4.99,0.00,29.2,27.6,00.0,38.4,31.2,20.8,0046.60,0027.25
2021-08-11 17:59:00,FlowAlarm;OPCInstrumentWarning,0829.7,5.01,0.00,29.2,27.9,00.0,38.4,31.2,20.6,0045.95,0027.23
